Location: Gwatt
(46.7204°N, 7.6223°E)
Time: 05:16:55
(UTC+00:00)

S-56A Canister/Altair - Pass Details

Date: 23 January 2021
Orbit: 632 x 2501 km, 38.9° (Epoch: 08 March)

Event Time Altitude Azimuth Distance (km) Brightness Sun altitude
Exits shadow 03:44:14 23° 129° (SE) 1,501 9.3 -33.9°
Drops below altitude 10° 03:46:47 10° 109° (ESE) 2,346 10.7 -33.5°
Sets 03:49:49 0° 100° (E) 3,498 11.9 -33.0°
